Back to catalog

ATLAS 5 CENTAUR DEB

AliveHEO
NORAD 53520·DEBRIS·🇺🇸 United States

Launched Oct 17, 2018 from Cape Canaveral Space Force Station

Loading…

Next Passes (next 24 hours)

TLE

AgingSource: Space-Track

Epoch: Sep 2, 2026, 09:45 UTC

1 53520U 18079HB  26245.40658742 -.00000154  00000-0  00000-0 0  9996
2 53520  13.6634  29.3229 4673326 321.4537  12.9519  1.80103885 31929

Track ATLAS 5 CENTAUR DEB in real time with AllMySat

Download on the App Store